User: anonymous   Login
Location: Bagnara
(41.0500°N, 14.7833°E)
Time: 02:04:38
(UTC+00:00)
Language:

Cosmos 1656 - Orbit

View from above orbital plane
View from above orbital plane
View from above satellite
View from above satellite

Ground track
Ground track

The orbit data is extracted from the following two-line orbital elements,

1 15755U 85042A   21267.60843111 -.00000055  00000-0 -35584-5 0  9996
2 15755  71.1105 315.5242 0034160 150.6467 209.6587 14.20470148882270
Epoch (UTC): 24 September 2021 14:36:08
Eccentricity: 0.0034160
inclination: 71.1105°
perigee height: 799 km
apogee height: 848 km
right ascension of ascending node: 315.5242°
argument of perigee: 150.6467°
revolutions per day: 14.20470148
mean anomaly at epoch: 209.6587°
orbit number at epoch: 88227

The dashed part of the orbit path shows where the satellite is in the earth's shadow,  

DLR